Vertical_Velocity
1 1 1 3 1 3 -1 -26 -2 -3 -6 1 7 3 -1 2 1 -12 -4 -4 2 3 -2 -1 -0 -0 -2 -2 -1 -1 -0 0 0 0 -0 0 -0 -1 0 0 0 0 -0 0 1 -1 -0 1 1
1 5 1 4 2 1 -8 -11 -18 6 10 0 3 0 -1 -3 0 -5 -0 -2 -4 0 -3 0 -2 0 -2 -1 -0 -0 -1 1 -0 0 -1 -0 1 -0 -1 0 0 -0 -1 -0 1 0 -0 0 -0
3 4 4 3 -6 -9 -8 -9 -11 8 8 2 3 2 5 -5 11 4 2 2 -1 -4 -5 -2 -0 -1 -1 0 0 -0 0 0 0 1 -0 -1 -0 -0 -0 1 0 -0 0 -0 1 -1 -2 -1 -1
1 4 4 -5 -8 -0 -14 4 4 -2 3 3 4 -1 -4 -5 -0 3 3 2 -0 -3 -4 -3 -2 1 -0 -0 -0 1 0 -0 1 1 1 -1 0 -1 -1 0 -0 -0 -0 -0 2 0 -0 -0 -0
4 4 3 -5 -7 -11 -8 2 1 -2 1 2 7 -4 -5 1 2 1 2 5 1 -1 -3 -2 -2 -2 -1 1 -1 1 1 -1 0 2 1 1 1 -1 -1 -1 -1 0 -1 0 -1 1 -0 -1 0
3 1 -0 -7 -12 -6 -5 -1 5 -2 -1 2 1 2 -5 -1 1 4 1 3 3 2 -1 -1 -1 -0 -1 -1 0 -1 -1 -0 0 -0 0 2 0 -1 0 -1 -1 0 0 0 -1 0 1 -2 -1
1 -0 -5 0 -5 -5 -18 10 -9 0 17 -2 -2 -2 2 -2 2 2 2 3 3 0 -1 -1 -1 -2 -0 1 -1 1 -0 -1 -1 0 0 0 0 -0 0 -0 -1 -1 0 -1 -0 -1 1 -1 -1
-1 5 -5 -6 -9 -30 4 3 5 -2 -4 17 8 -10 -7 -2 2 3 4 4 3 3 2 1 -1 -3 -3 -1 1 0 -1 -1 0 0 0 1 -1 -0 -1 0 -1 -0 -0 -1 -1 -0 -1 -1 -0
7 2 -9 -6 -7 -12 4 0 7 -0 -4 4 5 -2 -5 4 3 7 -1 0 0 -1 1 -1 1 -1 -3 -3 1 1 -2 -1 0 0 -0 -0 1 -0 -1 0 -1 -0 2 -0 1 -2 -0 -0 0
0 -9 -5 -1 -3 -13 7 3 15 3 2 -0 5 9 -1 -3 0 -3 -6 -4 1 1 -1 1 0 -1 -0 -1 0 0 1 -2 -0 0 1 0 0 1 -1 -1 -2 3 -1 3 -1 -2 -0 0 -0
-2 -62 29 10 -1 3 2 1 2 2 -4 3 -0 -5 1 -2 0 2 5 5 -0 3 4 -1 0 -1 -0 -0 1 -1 1 1 -2 -0 -0 2 1 2 1 0 -4 6 0 4 2 -1 -1 -1 -1
-14 -8 10 6 6 -6 1 6 -0 -6 -3 3 13 12 8 -2 -1 -4 -5 -6 -9 -7 6 2 3 -3 -2 2 -0 3 0 3 3 -0 2 1 1 1 1 -1 0 2 2 2 3 0 -0 -0 -0
-18 46 -1 15 10 -3 4 -7 4 -8 2 3 9 6 8 7 5 7 7 5 4 -1 -1 -2 1 -3 -0 2 0 -1 0 1 2 2 -1 1 1 1 1 -0 1 2 2 1 3 2 1 0 0
12 7 1 12 12 2 -11 -7 9 15 14 6 2 6 6 4 -0 -0 3 4 -4 -1 -1 2 1 0 1 3 2 2 1 -0 -0 0 2 2 -1 1 1 -0 1 2 3 2 1 2 2 2 0
5 -12 13 -3 4 4 4 -23 -76 33 2 1 2 -1 -2 11 8 3 7 1 1 3 6 1 -1 1 -0 4 1 4 3 -1 2 -0 -1 2 2 1 1 1 -0 1 3 1 0 0 1 2 2
8 11 4 16 16 7 20 -80 30 9 -3 8 5 1 -2 -2 9 5 4 9 2 8 -1 4 -2 -1 0 2 1 3 2 -1 3 1 0 1 1 2 1 1 0 2 2 2 2 -0 0 0 1
-4 -11 7 0 13 5 -2 -34 18 5 -6 -3 7 6 4 0 -0 6 8 2 2 2 4 4 -2 0 2 -0 1 0 5 1 3 0 0 1 1 1 1 -0 0 2 2 2 2 2 -0 -1 -0
-7 3 7 -7 -9 5 -1 -48 14 -2 7 -5 -0 4 1 2 -2 3 0 4 9 1 5 0 -1 3 4 7 1 1 2 2 2 2 -1 -0 1 2 1 -0 -1 1 1 1 1 1 2 -0 -2
16 11 0 -10 -5 12 13 -14 23 -1 -2 -15 -2 6 2 -3 10 2 2 4 4 2 4 6 -0 3 -1 2 0 -3 0 -1 -1 -0 1 -0 1 1 2 2 0 -0 1 2 1 1 -0 2 1
-0 7 -9 -23 1 20 2 -13 19 5 -10 6 -9 -8 1 14 3 3 3 2 0 10 -2 3 -3 -2 7 -2 5 0 5 3 5 5 6 5 1 0 -1 -0 1 -0 0 -1 -0 1 3 0 2
1 6 -5 1 -1 -9 5 -31 -3 -17 -4 14 -3 -7 5 -7 -1 1 -1 -0 8 -2 -1 1 0 3 6 3 15 -8 4 -0 3 -2 -4 -1 0 1 2 2 2 2 0 0 3 1 -1 1 3
-1 -6 -3 -7 11 -4 12 -19 10 2 -7 -6 -6 0 -5 -1 2 0 1 -3 -5 4 7 5 0 1 1 4 9 -7 2 -2 -9 -3 4 5 4 2 3 3 3 2 2 1 3 -1 4 2 1
-16 14 10 7 -1 13 -13 16 1 0 -13 -7 -8 -6 -1 -15 9 1 -2 -2 7 2 2 5 -0 0 -2 -0 7 1 -3 4 16 1 -2 -5 -0 1 0 2 3 2 2 -0 1 -0 -1 -1 0
0 5 -1 11 8 15 -17 5 -18 -7 -12 1 4 4 -9 2 -9 2 4 1 -3 5 -3 2 -2 -3 -2 4 -9 31 -3 -1 1 12 -2 1 -4 2 2 0 2 3 2 6 4 3 -0 1 -1
6 -0 1 9 11 -6 -11 16 -52 11 -24 -11 -9 -7 3 6 6 -2 3 -1 -2 -5 1 0 -3 -4 -1 -1 3 3 1 5 7 1 13 3 4 -8 -1 2 1 3 6 1 6 3 -0 2 3
-4 13 3 -2 -0 -8 7 -2 -21 -31 11 2 -1 -2 9 -3 -5 0 -2 -1 -1 -4 0 0 1 -2 4 2 0 -3 -2 3 2 4 4 -3 2 5 3 5 4 1 3 5 0 5 3 2 -2
2 10 8 3 -4 6 -4 10 -6 -3 -16 -7 -6 15 -1 0 -0 -4 3 7 4 -5 -6 -1 -1 -3 -2 3 -2 -3 0 -7 6 1 -8 8 -1 5 0 5 5 3 1 1 3 -1 4 6 4
13 10 -6 5 0 1 -2 0 -4 -6 -12 -4 5 -3 -6 -3 8 5 2 0 2 4 -1 9 8 0 1 -1 -3 -4 4 1 7 5 1 -0 -0 -1 -0 1 -0 1 5 7 2 2 1 2 4
-22 -7 -9 6 1 2 -1 2 -6 8 10 9 15 5 -7 -4 -4 -5 1 8 1 8 -0 1 6 4 3 3 -1 2 1 -2 38 11 6 6 20 1 -1 -5 6 2 2 2 5 -2 -1 -2 3
4 4 18 4 -6 -0 2 12 1 9 31 8 7 7 -25 5 -3 5 8 8 2 0 -4 -2 5 2 6 6 -1 1 4 -2 -4 -2 -1 0 1 5 -14 -11 -3 1 3 3 2 5 0 1 1
Height
3112 3112 3112 3113 3118 3107 3100 3102 3105 3104 3108 3109 3113 3114 3116 3118 3119 3121 3118 3121 3122 3123 3125 3127 3129 3131 3133 3136 3138 3141 3143 3144 3145 3146 3147 3149 3150 3150 3151 3151 3152 3153 3155 3155 3156 3157 3157 3157 3157
3108 3107 3106 3106 3105 3096 3090 3099 3100 3101 3105 3107 3108 3110 3112 3113 3115 3116 3118 3119 3120 3122 3124 3125 3127 3130 3133 3135 3138 3140 3143 3144 3146 3146 3147 3148 3149 3150 3151 3152 3153 3154 3155 3156 3157 3158 3158 3158 3158
3102 3102 3101 3098 3091 3081 3085 3094 3098 3100 3101 3103 3104 3105 3107 3109 3113 3113 3115 3117 3119 3121 3123 3124 3127 3129 3132 3135 3137 3140 3142 3144 3145 3146 3147 3148 3149 3150 3151 3152 3153 3155 3156 3157 3158 3159 3159 3159 3159
3097 3096 3095 3087 3076 3078 3083 3091 3092 3093 3094 3096 3100 3099 3101 3105 3110 3112 3113 3114 3117 3119 3122 3124 3125 3128 3131 3133 3136 3139 3141 3143 3144 3145 3147 3147 3149 3150 3151 3153 3154 3155 3157 3157 3159 3160 3160 3160 3161
3089 3087 3084 3074 3070 3073 3082 3088 3086 3086 3087 3089 3093 3091 3096 3102 3106 3109 3111 3112 3114 3117 3120 3122 3124 3126 3129 3131 3134 3137 3140 3142 3143 3144 3146 3147 3149 3150 3152 3153 3154 3156 3157 3158 3159 3161 3161 3161 3162
3082 3081 3073 3064 3064 3072 3075 3082 3083 3082 3083 3086 3085 3089 3090 3097 3102 3105 3109 3111 3112 3115 3118 3120 3123 3125 3127 3130 3133 3135 3138 3140 3142 3144 3145 3147 3148 3150 3152 3153 3154 3156 3158 3159 3160 3161 3162 3162 3163
3074 3072 3063 3061 3060 3065 3070 3073 3074 3078 3078 3080 3082 3083 3085 3091 3097 3101 3104 3107 3109 3112 3115 3117 3120 3122 3124 3128 3132 3134 3136 3139 3141 3143 3145 3146 3148 3150 3152 3154 3155 3157 3159 3160 3161 3162 3163 3164 3164
3067 3065 3055 3052 3054 3054 3064 3066 3070 3070 3072 3080 3077 3072 3077 3086 3093 3097 3100 3101 3104 3108 3111 3114 3117 3119 3122 3125 3129 3133 3135 3137 3140 3142 3144 3146 3148 3149 3152 3154 3156 3158 3159 3161 3162 3163 3164 3165 3165
3059 3054 3039 3039 3048 3050 3057 3060 3065 3066 3066 3069 3069 3070 3077 3082 3088 3091 3093 3096 3099 3103 3107 3110 3113 3116 3119 3123 3126 3130 3134 3136 3138 3140 3143 3145 3147 3149 3151 3153 3155 3158 3160 3161 3163 3163 3165 3166 3167
3045 3037 3026 3031 3044 3047 3052 3054 3058 3058 3059 3059 3062 3065 3072 3077 3083 3086 3088 3092 3095 3099 3103 3107 3110 3114 3116 3120 3124 3127 3131 3135 3138 3139 3142 3144 3146 3148 3150 3152 3154 3158 3160 3163 3163 3164 3165 3167 3168
3032 3018 3026 3027 3037 3043 3044 3045 3050 3050 3050 3054 3059 3062 3067 3070 3074 3080 3084 3089 3094 3097 3100 3103 3106 3110 3114 3117 3121 3125 3128 3132 3136 3138 3141 3143 3145 3147 3149 3151 3153 3158 3160 3163 3164 3165 3166 3167 3169
3024 3015 3020 3020 3027 3034 3034 3040 3039 3042 3046 3052 3055 3058 3061 3063 3067 3073 3078 3083 3087 3091 3095 3099 3102 3106 3111 3115 3119 3123 3126 3130 3133 3137 3140 3142 3144 3146 3148 3150 3153 3158 3160 3162 3163 3165 3167 3168 3169
3011 3008 3013 3014 3018 3022 3027 3026 3030 3030 3040 3043 3047 3049 3051 3056 3062 3068 3073 3078 3082 3085 3090 3094 3098 3102 3107 3111 3116 3120 3124 3128 3131 3134 3138 3140 3143 3146 3148 3149 3152 3156 3159 3161 3162 3164 3166 3168 3170
3000 3000 3001 3006 3006 3009 3013 3014 3021 3016 3030 3034 3038 3041 3046 3048 3054 3060 3064 3069 3075 3080 3084 3088 3094 3099 3103 3107 3112 3117 3121 3125 3128 3131 3135 3138 3141 3144 3146 3149 3151 3155 3158 3161 3162 3163 3165 3168 3169
2988 2987 2992 2988 2995 2996 3003 2997 2993 3010 3016 3024 3028 3033 3039 3044 3048 3051 3058 3063 3069 3074 3079 3083 3088 3094 3097 3103 3108 3113 3117 3121 3125 3128 3132 3135 3138 3141 3144 3147 3150 3154 3157 3159 3161 3163 3165 3167 3169
2982 2980 2975 2972 2984 2991 2999 2969 2984 2996 3006 3012 3018 3022 3029 3036 3041 3047 3051 3057 3063 3069 3073 3080 3083 3089 3094 3098 3103 3108 3113 3118 3121 3124 3128 3132 3136 3139 3142 3144 3147 3151 3155 3158 3160 3162 3164 3166 3167
2971 2965 2968 2970 2977 2982 2988 2961 2975 2985 2991 2998 3007 3013 3018 3026 3033 3039 3044 3049 3055 3062 3068 3074 3079 3083 3089 3093 3098 3103 3109 3113 3117 3120 3124 3129 3133 3137 3139 3142 3145 3149 3153 3156 3158 3161 3163 3165 3167
2960 2965 2959 2958 2969 2974 2972 2955 2967 2977 2981 2988 2996 3003 3009 3015 3022 3032 3038 3044 3050 3055 3062 3068 3074 3079 3084 3089 3093 3097 3102 3107 3112 3117 3122 3126 3129 3133 3136 3139 3143 3146 3150 3153 3156 3159 3161 3163 3165
2954 2952 2948 2950 2959 2960 2957 2950 2957 2968 2975 2979 2983 2991 2998 3005 3016 3024 3031 3037 3043 3047 3053 3059 3064 3070 3076 3080 3085 3091 3099 3104 3108 3112 3117 3121 3125 3129 3132 3136 3140 3144 3149 3152 3155 3157 3159 3161 3164
2946 2943 2942 2941 2948 2953 2945 2936 2942 2955 2958 2966 2975 2980 2986 2995 3003 3013 3020 3028 3033 3039 3043 3050 3057 3063 3068 3073 3082 3090 3097 3100 3105 3109 3112 3116 3120 3125 3130 3134 3138 3142 3145 3148 3152 3155 3158 3160 3162
2940 2939 2938 2939 2937 2937 2939 2927 2928 2940 2949 2956 2962 2970 2977 2983 2992 3002 3009 3017 3025 3030 3034 3042 3050 3057 3062 3068 3077 3081 3085 3092 3097 3103 3109 3114 3118 3122 3126 3130 3133 3137 3141 3146 3150 3153 3156 3159 3161
2931 2933 2933 2934 2935 2929 2935 2922 2920 2929 2935 2943 2950 2958 2966 2972 2980 2989 2999 3006 3014 3020 3028 3036 3043 3049 3054 3062 3068 3071 3081 3089 3097 3103 3107 3110 3113 3116 3121 3126 3130 3134 3138 3142 3147 3150 3153 3156 3158
2925 2925 2924 2926 2925 2925 2921 2927 2910 2917 2922 2929 2938 2943 2953 2966 2972 2978 2988 2995 3004 3012 3019 3027 3035 3042 3047 3056 3062 3069 3077 3085 3090 3096 3102 3106 3110 3114 3117 3122 3127 3130 3135 3139 3143 3147 3150 3153 3155
2920 2917 2915 2917 2919 2908 2909 2917 2907 2913 2916 2923 2930 2935 2943 2954 2962 2970 2979 2989 2995 3003 3011 3018 3026 3034 3040 3048 3056 3061 3071 3077 3083 3088 3096 3102 3105 3109 3113 3117 3122 3127 3131 3135 3140 3143 3146 3149 3152
2917 2914 2908 2911 2907 2899 2901 2905 2902 2904 2913 2916 2921 2925 2932 2945 2953 2962 2970 2978 2986 2992 3000 3008 3017 3025 3033 3040 3048 3055 3063 3071 3079 3086 3089 3094 3100 3106 3109 3114 3118 3122 3127 3131 3135 3139 3143 3145 3148
2908 2908 2906 2897 2892 2891 2891 2885 2891 2899 2904 2909 2913 2922 2927 2933 2943 2954 2961 2970 2978 2985 2992 2999 3008 3016 3025 3033 3042 3049 3058 3066 3074 3078 3085 3090 3094 3100 3105 3109 3114 3119 3123 3126 3130 3134 3138 3142 3145
2909 2906 2904 2898 2891 2894 2881 2880 2888 2894 2901 2904 2908 2913 2915 2922 2933 2944 2952 2962 2970 2978 2986 2992 2999 3007 3018 3026 3034 3039 3047 3058 3065 3072 3080 3084 3088 3094 3097 3103 3109 3113 3118 3123 3127 3131 3135 3139 3142
2912 2907 2902 2897 2893 2881 2874 2878 2882 2888 2893 2901 2906 2909 2914 2920 2929 2939 2948 2957 2965 2974 2982 2989 2995 3001 3010 3019 3027 3034 3042 3050 3058 3063 3070 3077 3083 3087 3092 3098 3105 3109 3112 3116 3122 3126 3130 3134 3137
2910 2908 2906 2900 2891 2878 2877 2878 2882 2883 2892 2897 2901 2906 2912 2917 2924 2933 2942 2953 2962 2969 2977 2985 2990 2996 3004 3011 3019 3027 3036 3043 3049 3057 3065 3070 3076 3081 3085 3093 3099 3104 3107 3113 3118 3122 3126 3130 3133
2913 2907 2902 2898 2888 2882 2874 2877 2876 2880 2890 2896 2898 2898 2913 2918 2924 2928 2936 2947 2954 2963 2971 2979 2984 2991 2999 3005 3013 3021 3030 3036 3043 3050 3057 3065 3071 3075 3078 3088 3093 3097 3103 3108 3113 3117 3122 3125 3128